User: anonymous   Login
Location: eljas
(40.1958°N, 6.8661°W)
Time: 15:26:49
(UTC+02:00)
Language:

Okean O Rocket - Orbit

View from above orbital plane
View from above orbital plane
View from above satellite
View from above satellite

Ground track
Ground track

The orbit data is extracted from the following two-line orbital elements,

1 25861U 99039B   15144.86923634  .00000234  00000-0  39569-4 0  9993
2 25861 097.9990 105.2616 0015622 358.4887 028.4751 14.78131876854333
Epoch (UTC): 24 May 2015 20:51:42
Eccentricity: 0.0015622
inclination: 97.9990°
perigee height: 624 km
apogee height: 646 km
right ascension of ascending node: 105.2616°
argument of perigee: 358.4887°
revolutions per day: 14.78131876
mean anomaly at epoch: 28.4751°
orbit number at epoch: 85433

The dashed part of the orbit path shows where the satellite is in the earth's shadow,  

DLR